Home   Weather   Tiraspol   Past weeks

Flag for Moldova Past Weather in Tiraspol, Moldova — Yesterday and Last 2 Weeks

Now
66 °F

Passing clouds.


Feels Like: 66 °F
Forecast: 44 / 75 °F
Wind: 9 mph from Southeast

Location: Chisinau International Airport

Current Time: Apr 29, 2017 at 8:44:29 pm

Latest Report: Apr 29, 2017 at 8:00 pm


Visibility: N/A

Pressure: 29.92 "Hg

Humidity: 43%

Dew Point: 43 °F

Location of TiraspolLocation

Past Weather in Tiraspol — Graph

°F

Tiraspol Temperature Yesterday

Maximum temperature yesterday: 75 °F (at 4:00 pm)
Minimum temperature yesterday: 41 °F (at 6:00 am)
Average temperature yesterday: 57 °F

High & Low Weather Summary for the Past Weeks

 TemperatureHumidityPressure
High75 °F (Apr 28, 4:00 pm)100% (Apr 20, 5:30 am)30.15 "Hg (Apr 20, 5:30 am)
Low30 °F (Apr 19, 5:00 am)29% (Apr 29, 12:30 pm)29.74 "Hg (Apr 16, 5:30 pm)
Average47 °F66%29.97 "Hg
* Reported Apr 14 7:00 pm — Apr 29 7:30 pm, Tiraspol, Weather by CustomWeather, © 2017

Note: Actual official high and low records may vary slightly from our data, if they occured in-between our weather recording intervals... More about our weather records

Advertising

Tiraspol Weather History for the Previous 24 Hours

Scroll right to see more
 ConditionsComfort  
Time TempWeatherWind HumidityBarometerVisibility
7:30 pm
Sat, Apr 29
68 °FPassing clouds.14 mph38%29.89 "HgN/A
7:00 pm68 °FPassing clouds.14 mph38%29.92 "HgN/A
6:30 pm70 °FPassing clouds.14 mph38%29.92 "HgN/A
6:00 pm72 °FPassing clouds.15 mph38%29.89 "HgN/A
5:30 pm73 °FPassing clouds.17 mph33%29.89 "HgN/A
5:00 pm75 °FPassing clouds.17 mph31%29.89 "HgN/A
4:30 pm75 °FSunny.17 mph34%29.89 "Hg10 mi
3:30 pm75 °FSunny.18 mph36%29.89 "Hg10 mi
3:00 pm75 °FSunny.17 mph39%29.89 "Hg10 mi
2:30 pm75 °FSunny.17 mph36%29.89 "Hg10 mi
2:00 pm73 °FSunny.18 mph36%29.92 "Hg10 mi
1:30 pm73 °FSunny.18 mph36%29.92 "Hg10 mi
1:00 pm73 °FSunny.17 mph33%29.92 "Hg10 mi
12:30 pm73 °FSunny.20 mph29%29.92 "Hg10 mi
12:00 pm72 °FSunny.18 mph31%29.92 "Hg10 mi
11:30 am72 °FSunny.17 mph31%29.92 "Hg10 mi
10:30 am66 °FSunny.14 mph43%29.92 "Hg10 mi
10:00 am64 °FSunny.10 mph46%29.92 "Hg10 mi
9:30 am61 °FPassing clouds.9 mph52%29.92 "HgN/A
9:00 am57 °FSunny.12 mph59%29.92 "Hg10 mi
8:30 am57 °FSunny.12 mph55%29.92 "Hg10 mi
8:00 am55 °FSunny.9 mph59%29.92 "Hg10 mi
7:30 am52 °FPassing clouds.5 mph67%29.92 "HgN/A
7:00 am52 °FSunny.8 mph62%29.92 "Hg10 mi
6:30 am50 °FSunny.8 mph62%29.92 "Hg10 mi
6:00 am50 °FSunny.7 mph62%29.89 "Hg10 mi
5:30 am48 °FClear.6 mph71%29.89 "Hg10 mi
5:00 am46 °FClear.7 mph76%29.89 "Hg10 mi
4:00 am48 °FClear.5 mph71%29.92 "Hg10 mi
3:30 am48 °FPassing clouds.5 mph71%29.92 "HgN/A
3:00 am50 °FClear.8 mph67%29.92 "Hg10 mi
2:30 am50 °FClear.12 mph67%29.92 "Hg10 mi
2:00 am52 °FClear.12 mph58%29.92 "Hg10 mi
1:30 am52 °FClear.10 mph58%29.92 "Hg10 mi
1:00 am52 °FClear.8 mph62%29.92 "Hg10 mi
12:30 am52 °FClear.9 mph62%29.92 "Hg10 mi
12:00 am52 °FClear.9 mph67%29.92 "Hg10 mi
11:30 pm
Fri, Apr 28
54 °FClear.7 mph63%29.92 "Hg10 mi
11:00 pm54 °FClear.8 mph67%29.92 "Hg10 mi
10:30 pm55 °FClear.13 mph63%29.92 "Hg10 mi
10:00 pm55 °FClear.10 mph63%29.92 "Hg10 mi
9:30 pm57 °FClear.8 mph59%29.92 "Hg10 mi
9:00 pm59 °FClear.6 mph55%29.92 "Hg10 mi
8:30 pm61 °FClear.10 mph52%29.92 "Hg10 mi
8:00 pm63 °FSunny.13 mph45%29.92 "Hg10 mi
Weather by CustomWeather, © 2017

See weather overviewHow to use our weather pages